Weather History for Tyler, TX

Change the Weather History Date:

Tuesday, September 6, 2011

  Actual Average Record
Temperature  
Mean Temperature 74 °F 79 °F  
Max Temperature 90 °F 89 °F 101 °F (1963)
Min Temperature 58 °F 70 °F 47 °F (1974)
Degree Days  
Heating Degree Days 0 0  
Month to date heating degree days 0 0  
Since 1 July heating degree days 0 0  
Cooling Degree Days 9 14  
Month to date cooling degree days 109 90  
Year to date cooling degree days 3103 2012  
Growing Degree Days 23 (Base 50)    
Moisture  
Dew Point 41 °F    
Average Humidity 36    
Maximum Humidity 57    
Minimum Humidity 14    
Precipitation  
Precipitation 0.00 in 0.12 in 2.54 in (1973)
Month to date precipitation T 0.73  
Year to date precipitation 12.83 29.99  
Snow  
Snow 0.00 in - - ()
Month to date snowfall 0.0  
Since 1 July snowfall 0.0  
Since 1 September snowfall 0.0  
Snow Depth 0.00 in    
Sea Level Pressure  
Sea Level Pressure 30.04 in    
Wind  
Wind Speed 4 mph (NE)    
Max Wind Speed 15 mph    
Max Gust Speed 21 mph    
Visibility 8 miles    
Events      
T = Trace of Precipitation, MM = Missing Value Source: NWS Daily Summary

Daily Weather History Graph

Daily Weather History Graph

Search for Another Location

Airport:

Trip Planner

Search our weather history database for the weather conditions in past years. The results will help you decide how hot, cold, wet, or windy it might be!

Date:

Astronomy

Sep. 06, 2011 Rise Set
Actual Time 6:59 AM CDT 7:39 PM CDT
Civil Twilight 6:34 AM CDT 8:04 PM CDT
Nautical Twilight 6:05 AM CDT 8:33 PM CDT
Astronomical Twilight 5:35 AM CDT 9:03 PM CDT
Moon 4:01 PM CDT (9/6) 1:31 AM CDT (9/6)
Length of Visible Light 13h 29m
Length of Day
12h 40m
Waxing Gibbous, 71% of the Moon is Illuminated
Sep 6
Waxing Gibbous
Sep 12
Full
Sep 20
Last Quarter
Sep 27
New
Oct 3
First Quarter

Hourly Weather History & Observations

Time (CDT) Temp. Dew Point Humidity Pressure Visibility Wind Dir Wind Speed Gust Speed Precip Events Conditions
12:53 AM 66.9 °F 39.9 °F 37% 29.99 in 10.0 mi NNW 4.6 mph - N/A   Clear
1:53 AM 64.9 °F 41.0 °F 42% 30.00 in 10.0 mi North 4.6 mph - N/A   Clear
2:53 AM 64.0 °F 41.0 °F 43% 29.99 in 10.0 mi North 3.5 mph - N/A   Mostly Cloudy
3:18 AM 62.6 °F 42.8 °F 48% 30.01 in 10.0 mi North 4.6 mph - N/A   Overcast
3:53 AM 62.1 °F 42.1 °F 48% 29.99 in 10.0 mi North 3.5 mph - N/A   Mostly Cloudy
4:03 AM 62.6 °F 42.8 °F 48% 30.01 in 10.0 mi North 4.6 mph - N/A   Scattered Clouds
4:53 AM 60.1 °F 42.1 °F 51% 30.00 in 10.0 mi Calm Calm - N/A   Clear
5:13 AM 60.8 °F 42.8 °F 52% 30.02 in 10.0 mi NNE 3.5 mph - N/A   Mostly Cloudy
5:53 AM 57.9 °F 43.0 °F 58% 30.03 in 10.0 mi NNE 3.5 mph - N/A   Overcast
6:38 AM 59.0 °F 42.8 °F 55% 30.06 in 10.0 mi Calm Calm - N/A   Overcast
6:48 AM 57.2 °F 42.8 °F 59% 30.06 in 10.0 mi Calm Calm - N/A   Overcast
6:53 AM 57.9 °F 42.1 °F 56% 30.04 in 10.0 mi Calm Calm - N/A   Mostly Cloudy
6:59 AM 57.2 °F 42.8 °F 59% 30.06 in 10.0 mi NE 3.5 mph - N/A   Scattered Clouds
7:54 AM 61.0 °F 44.1 °F 54% 30.07 in - NE 4.6 mph - N/A   Unknown
8:23 AM 62.6 °F 44.6 °F 52% 30.09 in 4.0 mi ENE 6.9 mph - N/A   Haze
8:32 AM 64.4 °F 44.6 °F 49% 30.09 in 4.0 mi ENE 5.8 mph - N/A   Haze
8:53 AM 66.2 °F 44.6 °F 46% 30.10 in 3.0 mi NE 4.6 mph - N/A   Haze
9:01 AM 68.0 °F 44.6 °F 43% 30.10 in 2.5 mi ENE 8.1 mph - N/A   Haze
9:29 AM 69.8 °F 42.8 °F 38% 30.10 in 2.0 mi East 12.7 mph - N/A   Smoke
9:53 AM 71.6 °F 42.8 °F 35% 30.10 in 2.0 mi East 10.4 mph - N/A   Smoke
10:00 AM 73.4 °F 42.8 °F 33% 30.10 in 2.5 mi East 10.4 mph - N/A   Smoke
10:08 AM 73.4 °F 42.8 °F 33% 30.10 in 2.5 mi East 9.2 mph - N/A   Smoke
10:53 AM 75.0 °F 42.1 °F 31% 30.09 in 2.5 mi East 6.9 mph - N/A   Smoke
11:02 AM 75.2 °F 42.8 °F 31% 30.10 in 3.0 mi East 5.8 mph - N/A   Smoke
11:53 AM 78.1 °F 42.1 °F 28% 30.08 in 5.0 mi Calm Calm - N/A   Smoke
12:53 PM 82.9 °F 39.9 °F 22% 30.05 in 3.0 mi NE 9.2 mph - N/A   Smoke
1:53 PM 84.9 °F 39.9 °F 20% 30.03 in 10.0 mi Variable 3.5 mph - N/A   Smoke
2:53 PM 86.0 °F 37.0 °F 18% 30.00 in 10.0 mi Variable 3.5 mph 17.3 mph N/A   Clear
3:53 PM 89.1 °F 34.0 °F 14% 29.98 in 10.0 mi NNE 9.2 mph - N/A   Clear
4:53 PM 89.1 °F 35.1 °F 15% 29.97 in 10.0 mi Variable 5.8 mph - N/A   Clear
5:53 PM 89.6 °F 33.8 °F 14% 29.98 in 10.0 mi NNE 6.9 mph - N/A   Clear
6:53 PM 87.1 °F 32.0 °F 14% 29.97 in 10.0 mi North 6.9 mph - N/A   Clear
7:53 PM 82.0 °F 33.1 °F 17% 29.99 in 10.0 mi North 4.6 mph - N/A   Clear
8:53 PM 73.9 °F 37.0 °F 26% 30.00 in 10.0 mi Calm Calm - N/A   Clear
9:53 PM 69.1 °F 37.9 °F 32% 30.02 in 10.0 mi Calm Calm - N/A   Clear
10:53 PM 68.0 °F 39.0 °F 35% 30.03 in 10.0 mi Calm Calm - N/A   Clear
11:53 PM 64.9 °F 39.9 °F 40% 30.04 in 10.0 mi Calm Calm - N/A   Clear